| time (UTC) | temp F | wind direction | speed MPH | gust MPH | rain 1hr in | rain 24hr in | rain mn in | humidity % | barometer mb |
| 20260904043746 | 78 | 211 | 0.0 | 0.0 | 0.00 | 1.59 | 1.59 | 99 | 1014.2 |
| 20260904043242 | 78 | 211 | 0.0 | 0.0 | 0.00 | 1.59 | 1.59 | 99 | 1014.1 |
| 20260904042737 | 78 | 211 | 0.0 | 0.0 | 0.00 | 1.59 | 1.59 | 99 | 1014.2 |
| 20260904042234 | 78 | 211 | 0.0 | 0.0 | 0.00 | 1.59 | 1.59 | 99 | 1014.1 |
| 20260904041732 | 78 | 211 | 0.0 | 0.0 | 0.00 | 1.59 | 1.59 | 99 | 1014.2 |
| 20260904041229 | 78 | 211 | 0.0 | 0.0 | 0.00 | 1.59 | 1.59 | 99 | 1014.2 |
| 20260904040725 | 78 | 211 | 0.0 | 0.0 | 0.00 | 1.59 | 1.59 | 99 | 1014.4 |
| 20260904040220 | 78 | 211 | 0.0 | 0.0 | 0.00 | 1.59 | 1.59 | 99 | 1014.2 |
| 20260904035716 | 78 | 211 | 0.0 | 0.0 | 0.00 | 1.59 | 1.59 | 98 | 1014.2 |
| 20260904035212 | 78 | 211 | 0.0 | 0.0 | 0.00 | 1.59 | 1.59 | 98 | 1014.3 |
| 20260904034710 | 78 | 212 | 0.0 | 0.0 | 0.00 | 1.59 | 1.59 | 98 | 1014.4 |
| 20260904034206 | 78 | 212 | 0.0 | 0.0 | 0.00 | 1.59 | 1.59 | 98 | 1014.3 |
| 20260904033702 | 78 | 212 | 0.0 | 0.0 | 0.00 | 1.59 | 1.59 | 98 | 1014.3 |
| 20260904033159 | 78 | 212 | 0.0 | 0.0 | 0.00 | 1.59 | 1.59 | 98 | 1014.2 |
| 20260904032654 | 78 | 211 | 0.0 | 0.0 | 0.00 | 1.59 | 1.59 | 98 | 1014.3 |
| 20260904032153 | 78 | 211 | 0.0 | 0.0 | 0.00 | 1.59 | 1.59 | 98 | 1014.3 |
| 20260904031648 | 78 | 212 | 0.0 | 0.0 | 0.00 | 1.59 | 1.59 | 98 | 1014.1 |
| 20260904031143 | 78 | 211 | 0.0 | 0.0 | 0.00 | 1.59 | 1.59 | 98 | 1014.4 |
| 20260904030639 | 78 | 212 | 0.0 | 0.0 | 0.00 | 1.59 | 1.59 | 98 | 1014.4 |
| 20260904030134 | 78 | 212 | 0.0 | 0.0 | 0.00 | 1.59 | 1.59 | 98 | 1014.2 |
| 20260904025630 | 78 | 218 | 0.0 | 0.0 | 0.00 | 1.59 | 1.59 | 98 | 1014.2 |
| 20260904025125 | 78 | 212 | 0.0 | 0.0 | 0.00 | 1.59 | 1.59 | 98 | 1014.0 |
| 20260904024620 | 78 | 212 | 0.0 | 0.0 | 0.00 | 1.59 | 1.59 | 98 | 1014.2 |
| 20260904024115 | 78 | 212 | 0.0 | 0.0 | 0.00 | 1.59 | 1.59 | 98 | 1014.1 |
| 20260904023612 | 78 | 211 | 0.0 | 0.0 | 0.00 | 1.59 | 1.59 | 98 | 1014.1 |
| 20260904023108 | 78 | 212 | 0.0 | 0.0 | 0.00 | 1.59 | 1.59 | 98 | 1013.9 |
| 20260904022602 | 78 | 212 | 0.0 | 0.0 | 0.00 | 1.59 | 1.59 | 98 | 1014.0 |
| 20260904022059 | 78 | 211 | 0.0 | 0.0 | 0.00 | 1.59 | 1.59 | 98 | 1013.9 |
| 20260904021554 | 78 | 212 | 0.0 | 0.0 | 0.00 | 1.59 | 1.59 | 97 | 1013.7 |
| 20260904021049 | 78 | 211 | 0.0 | 0.0 | 0.00 | 1.59 | 1.59 | 97 | 1013.7 |
| 20260904020544 | 78 | 211 | 0.0 | 0.0 | 0.00 | 1.59 | 1.59 | 97 | 1013.6 |
| 20260904020039 | 78 | 248 | 0.0 | 0.0 | 0.00 | 1.59 | 1.59 | 97 | 1013.8 |
| 20260904015533 | 78 | 196 | 0.0 | 0.0 | 0.00 | 1.59 | 1.59 | 97 | 1013.6 |
| 20260904015032 | 78 | 195 | 0.0 | 0.0 | 0.00 | 1.59 | 1.59 | 97 | 1013.4 |
| 20260904014526 | 78 | 195 | 0.0 | 1.0 | 0.00 | 1.59 | 1.59 | 97 | 1013.6 |
| 20260904014022 | 78 | 198 | 0.0 | 0.0 | 0.00 | 1.59 | 1.59 | 97 | 1013.4 |
| 20260904013518 | 78 | 202 | 0.0 | 0.0 | 0.00 | 1.59 | 1.59 | 97 | 1013.3 |
| 20260904013015 | 78 | 202 | 0.0 | 1.0 | 0.00 | 1.59 | 1.59 | 97 | 1013.1 |
| 20260904012514 | 78 | 202 | 0.0 | 0.0 | 0.00 | 1.59 | 1.59 | 96 | 1013.4 |
| 20260904012009 | 78 | 202 | 0.0 | 0.0 | 0.00 | 1.59 | 1.59 | 96 | 1013.2 |
| 20260904011503 | 78 | 203 | 0.0 | 0.0 | 0.00 | 1.59 | 1.59 | 96 | 1013.2 |
| 20260904010958 | 79 | 190 | 0.0 | 0.0 | 0.00 | 1.59 | 1.59 | 96 | 1013.1 |
| 20260904010455 | 79 | 211 | 0.0 | 0.0 | 0.00 | 1.59 | 1.59 | 96 | 1013.4 |
| 20260904005954 | 79 | 216 | 0.0 | 0.0 | 0.00 | 1.59 | 1.59 | 96 | 1013.1 |
| 20260904005450 | 79 | 204 | 0.0 | 0.0 | 0.00 | 1.59 | 1.59 | 95 | 1013.1 |
| 20260904004945 | 79 | 204 | 0.0 | 0.0 | 0.00 | 1.59 | 1.59 | 95 | 1013.1 |
| 20260904004441 | 79 | 212 | 0.0 | 1.0 | 0.00 | 1.59 | 1.59 | 95 | 1013.2 |
| 20260904003935 | 79 | 212 | 0.0 | 0.0 | 0.00 | 1.59 | 1.59 | 94 | 1013.1 |
| 20260904003431 | 79 | 212 | 0.0 | 0.0 | 0.00 | 1.59 | 1.59 | 94 | 1013.2 |
| 20260904002926 | 80 | 211 | 0.0 | 0.0 | 0.00 | 1.59 | 1.59 | 93 | 1013.5 |
| 20260904002423 | 80 | 209 | 0.0 | 1.0 | 0.00 | 1.59 | 1.59 | 93 | 1013.5 |
| 20260904001922 | 80 | 192 | 0.0 | 0.0 | 0.00 | 1.59 | 1.59 | 93 | 1013.5 |
| 20260904001418 | 80 | 270 | 0.0 | 1.0 | 0.00 | 1.59 | 1.59 | 92 | 1013.5 |
| 20260904000917 | 80 | 242 | 0.0 | 1.0 | 0.00 | 1.59 | 1.59 | 92 | 1013.4 |
| 20260904000418 | 80 | 232 | 0.0 | 1.0 | 0.00 | 1.59 | 1.59 | 92 | 1013.5 |
| 20260903235912 | 81 | 202 | 0.0 | 1.0 | 0.00 | 1.59 | 1.59 | 91 | 1013.5 |
| 20260903235408 | 81 | 221 | 0.0 | 1.0 | 0.00 | 1.59 | 1.59 | 91 | 1013.6 |
| 20260903234908 | 81 | 203 | 0.0 | 1.0 | 0.00 | 1.59 | 1.59 | 90 | 1013.6 |
| 20260903234403 | 81 | 191 | 0.0 | 0.0 | 0.00 | 1.59 | 1.59 | 90 | 1013.5 |
| 20260903233859 | 81 | 213 | 0.0 | 0.0 | 0.00 | 1.59 | 1.59 | 90 | 1013.8 |
| 20260903233356 | 81 | 196 | 0.0 | 1.0 | 0.00 | 1.59 | 1.59 | 91 | 1013.7 |
| 20260903232854 | 81 | 199 | 0.0 | 2.0 | 0.00 | 1.59 | 1.59 | 92 | 1013.9 |
| 20260903232350 | 81 | 206 | 0.0 | 0.0 | 0.00 | 1.59 | 1.59 | 92 | 1013.9 |
| 20260903231849 | 81 | 194 | 0.0 | 1.0 | 0.00 | 1.59 | 1.59 | 93 | 1013.9 |
| 20260903231345 | 80 | 250 | 0.0 | 1.0 | 0.00 | 1.59 | 1.59 | 93 | 1014.0 |
| 20260903230840 | 80 | 281 | 2.0 | 2.0 | 0.00 | 1.59 | 1.59 | 93 | 1014.0 |
| 20260903230335 | 80 | 206 | 0.0 | 0.0 | 0.00 | 1.59 | 1.59 | 94 | 1013.9 |
| 20260903225832 | 80 | 227 | 0.0 | 0.0 | 0.00 | 1.59 | 1.59 | 94 | 1014.0 |
| 20260903225327 | 79 | 230 | 0.0 | 2.0 | 0.00 | 1.59 | 1.59 | 95 | 1013.8 |
| 20260903224824 | 79 | 199 | 0.0 | 1.0 | 0.00 | 1.59 | 1.59 | 95 | 1013.7 |
| 20260903224319 | 79 | 167 | 0.0 | 1.0 | 0.00 | 1.59 | 1.59 | 96 | 1013.7 |
| 20260903223815 | 79 | 223 | 1.0 | 1.0 | 0.00 | 1.59 | 1.59 | 96 | 1013.8 |
| 20260903223314 | 79 | 249 | 0.0 | 1.0 | 0.00 | 1.59 | 1.59 | 96 | 1013.8 |
| 20260903222809 | 78 | 205 | 1.0 | 2.0 | 0.00 | 1.59 | 1.59 | 96 | 1013.9 |
| 20260903222308 | 78 | 197 | 2.0 | 2.0 | 0.00 | 1.59 | 1.59 | 96 | 1013.7 |
| 20260903221803 | 78 | 257 | 2.0 | 3.0 | 0.00 | 1.59 | 1.59 | 96 | 1013.7 |
| 20260903221301 | 78 | 186 | 2.0 | 2.0 | 0.00 | 1.59 | 1.59 | 96 | 1013.9 |
| 20260903220800 | 78 | 213 | 0.0 | 2.0 | 0.00 | 1.59 | 1.59 | 96 | 1014.0 |
| 20260903220254 | 78 | 207 | 1.0 | 2.0 | 0.00 | 1.59 | 1.59 | 96 | 1014.2 |
| 20260903215747 | 78 | 230 | 0.0 | 1.0 | 0.00 | 1.59 | 1.59 | 96 | 1014.2 |
| 20260903215244 | 77 | 224 | 0.0 | 0.0 | 0.00 | 1.59 | 1.59 | 97 | 1014.3 |
| 20260903214741 | 77 | 214 | 0.0 | 0.0 | 0.00 | 1.59 | 1.59 | 98 | 1014.3 |
| 20260903214237 | 77 | 215 | 0.0 | 0.0 | 0.00 | 1.59 | 1.59 | 98 | 1014.2 |
| 20260903213731 | 77 | 249 | 0.0 | 0.0 | 0.00 | 1.59 | 1.59 | 99 | 1014.3 |
| 20260903213228 | 76 | 183 | 0.0 | 0.0 | 0.00 | 1.59 | 1.59 | 99 | 1014.2 |
| 20260903212723 | 76 | 205 | 0.0 | 0.0 | 0.00 | 1.59 | 1.59 | 99 | 1014.4 |
| 20260903212220 | 76 | 184 | 0.0 | 1.0 | 0.00 | 1.59 | 1.59 | 99 | 1014.4 |
| 20260903211719 | 76 | 219 | 1.0 | 2.0 | 0.00 | 1.59 | 1.59 | 99 | 1014.6 |
| 20260903211215 | 76 | 242 | 0.0 | 1.0 | 0.00 | 1.59 | 1.59 | 99 | 1014.5 |
| 20260903210712 | 76 | 269 | 1.0 | 2.0 | 0.00 | 1.59 | 1.59 | 99 | 1014.7 |
| 20260903210207 | 76 | 271 | 0.0 | 1.0 | 0.00 | 1.59 | 1.59 | 99 | 1014.8 |
| 20260903205701 | 76 | 186 | 2.0 | 3.0 | 0.00 | 1.59 | 1.59 | 99 | 1014.9 |
| 20260903205200 | 76 | 225 | 0.0 | 1.0 | 0.00 | 1.59 | 1.59 | 99 | 1015.1 |
| 20260903204655 | 76 | 221 | 0.0 | 1.0 | 0.00 | 1.59 | 1.59 | 99 | 1015.0 |
| 20260903204152 | 76 | 215 | 0.0 | 1.0 | 0.00 | 1.59 | 1.59 | 99 | 1014.8 |
| 20260903203647 | 76 | 208 | 0.0 | 2.0 | 0.07 | 1.59 | 1.59 | 99 | 1014.8 |
| 20260903203142 | 77 | 305 | 2.0 | 2.0 | 0.07 | 1.59 | 1.59 | 99 | 1015.1 |
| 20260903202636 | 76 | 226 | 0.0 | 1.0 | 0.00 | 1.58 | 1.58 | 99 | 1015.0 |
| 20260903202132 | 76 | 222 | 0.0 | 1.0 | 0.00 | 1.58 | 1.58 | 99 | 1015.2 |
| 20260903201632 | 76 | 217 | 0.0 | 1.0 | 0.00 | 1.58 | 1.58 | 99 | 1015.2 |
| 20260903201131 | 77 | 211 | 1.0 | 1.0 | 0.05 | 1.58 | 1.58 | 99 | 1015.0 |
| 20260903200626 | 77 | 269 | 2.0 | 2.0 | 0.05 | 1.58 | 1.58 | 99 | 1014.8 |
| 20260903200122 | 77 | 232 | 0.0 | 1.0 | 0.00 | 1.57 | 1.57 | 99 | 1015.0 |
| 20260903195617 | 77 | 234 | 0.0 | 1.0 | 0.00 | 1.57 | 1.57 | 99 | 1014.9 |
| 20260903195113 | 77 | 252 | 0.0 | 3.0 | 0.00 | 1.57 | 1.57 | 99 | 1014.8 |
| 20260903194609 | 77 | 243 | 1.0 | 2.0 | 0.00 | 1.57 | 1.57 | 99 | 1014.7 |
| 20260903194108 | 77 | 255 | 2.0 | 2.0 | 0.00 | 1.57 | 1.57 | 99 | 1014.9 |
| 20260903193604 | 77 | 209 | 0.0 | 2.0 | 0.00 | 1.57 | 1.57 | 99 | 1015.1 |
| 20260903193100 | 77 | 221 | 0.0 | 1.0 | 0.00 | 1.57 | 1.57 | 99 | 1015.4 |
| 20260903192557 | 77 | 204 | 0.0 | 0.0 | 0.00 | 1.57 | 1.57 | 99 | 1015.4 |
| 20260903192057 | 77 | 232 | 0.0 | 1.0 | 0.00 | 1.57 | 1.57 | 99 | 1015.5 |
| 20260903191553 | 77 | 210 | 0.0 | 0.0 | 0.00 | 1.57 | 1.57 | 99 | 1015.8 |
| 20260903191048 | 77 | 207 | 1.0 | 1.0 | 0.07 | 1.57 | 1.57 | 99 | 1015.6 |
| 20260903190547 | 77 | 237 | 0.0 | 2.0 | 0.24 | 1.57 | 1.57 | 99 | 1015.5 |
| 20260903190047 | 77 | 206 | 0.0 | 1.0 | 1.82 | 1.55 | 1.55 | 98 | 1015.6 |
| 20260903185542 | 77 | 20 | 5.0 | 7.0 | 4.68 | 1.52 | 1.52 | 98 | 1015.6 |
| 20260903185038 | 77 | 204 | 1.0 | 3.0 | 5.10 | 1.23 | 1.23 | 97 | 1015.9 |
| 20260903184529 | 78 | 182 | 1.0 | 2.0 | 2.46 | 0.62 | 0.62 | 96 | 1016.3 |
| 20260903184023 | 78 | 357 | 2.0 | 6.0 | 1.44 | 0.31 | 0.31 | 95 | 1016.3 |
| 20260903183522 | 80 | 1 | 4.0 | 8.0 | 0.78 | 0.20 | 0.20 | 93 | 1016.1 |
| 20260903183017 | 81 | 228 | 0.0 | 3.0 | 0.00 | 0.07 | 0.07 | 90 | 1016.2 |
| 20260903182516 | 81 | 334 | 2.0 | 6.0 | 0.00 | 0.07 | 0.07 | 89 | 1016.1 |
| 20260903182013 | 82 | 175 | 3.0 | 4.0 | 0.00 | 0.07 | 0.07 | 90 | 1015.6 |
| 20260903181511 | 82 | 218 | 1.0 | 3.0 | 0.00 | 0.07 | 0.07 | 90 | 1015.6 |
| 20260903181011 | 83 | 211 | 0.0 | 2.0 | 0.00 | 0.07 | 0.07 | 88 | 1015.8 |
| 20260903180507 | 84 | 224 | 0.0 | 2.0 | 0.00 | 0.07 | 0.07 | 89 | 1015.8 |
| 20260903180006 | 84 | 237 | 1.0 | 2.0 | 0.00 | 0.07 | 0.07 | 89 | 1015.7 |
| 20260903175505 | 84 | 356 | 2.0 | 2.0 | 0.00 | 0.07 | 0.07 | 89 | 1015.8 |
| 20260903175004 | 84 | 194 | 0.0 | 1.0 | 0.00 | 0.07 | 0.07 | 88 | 1015.7 |
| 20260903174459 | 84 | 226 | 0.0 | 2.0 | 0.00 | 0.07 | 0.07 | 88 | 1015.8 |
| 20260903173954 | 84 | 216 | 1.0 | 3.0 | 0.00 | 0.07 | 0.07 | 88 | 1015.9 |
| 20260903173450 | 85 | 225 | 0.0 | 3.0 | 0.00 | 0.07 | 0.07 | 87 | 1016.1 |
| 20260903172945 | 85 | 228 | 0.0 | 0.0 | 0.00 | 0.07 | 0.07 | 87 | 1016.1 |
| 20260903172440 | 85 | 260 | 1.0 | 2.0 | 0.00 | 0.07 | 0.07 | 87 | 1015.8 |
| 20260903171935 | 86 | 219 | 0.0 | 2.0 | 0.00 | 0.07 | 0.07 | 86 | 1015.7 |
| 20260903171430 | 86 | 213 | 0.0 | 0.0 | 0.00 | 0.07 | 0.07 | 85 | 1015.6 |
| 20260903170925 | 86 | 222 | 1.0 | 2.0 | 0.00 | 0.07 | 0.07 | 85 | 1015.8 |
| 20260903170425 | 87 | 191 | 0.0 | 0.0 | 0.00 | 0.07 | 0.07 | 84 | 1015.7 |
| 20260903165923 | 87 | 26 | 0.0 | 1.0 | 0.00 | 0.07 | 0.07 | 84 | 1015.6 |
| 20260903165418 | 87 | 232 | 0.0 | 1.0 | 0.00 | 0.07 | 0.07 | 84 | 1015.7 |
| 20260903164918 | 87 | 205 | 0.0 | 0.0 | 0.00 | 0.07 | 0.07 | 85 | 1015.7 |
| 20260903164413 | 86 | 189 | 0.0 | 0.0 | 0.00 | 0.07 | 0.07 | 85 | 1015.9 |
| 20260903163913 | 86 | 199 | 1.0 | 2.0 | 0.00 | 0.07 | 0.07 | 85 | 1016.0 |
| 20260903163409 | 86 | 211 | 0.0 | 1.0 | 0.00 | 0.07 | 0.07 | 86 | 1015.8 |
| 20260903162905 | 86 | 207 | 0.0 | 1.0 | 0.00 | 0.07 | 0.07 | 85 | 1015.9 |
| 20260903162402 | 86 | 215 | 0.0 | 0.0 | 0.00 | 0.07 | 0.07 | 86 | 1015.6 |
| 20260903161858 | 85 | 206 | 0.0 | 0.0 | 0.00 | 0.07 | 0.07 | 86 | 1015.7 |
| 20260903161357 | 85 | 230 | 0.0 | 1.0 | 0.00 | 0.07 | 0.07 | 87 | 1015.6 |
| 20260903160854 | 85 | 195 | 0.0 | 0.0 | 0.00 | 0.07 | 0.07 | 87 | 1015.6 |
| 20260903160352 | 85 | 211 | 0.0 | 0.0 | 0.00 | 0.07 | 0.07 | 87 | 1015.9 |
| 20260903155851 | 85 | 211 | 0.0 | 0.0 | 0.00 | 0.07 | 0.07 | 88 | 1015.7 |
| 20260903155347 | 85 | 185 | 0.0 | 1.0 | 0.00 | 0.07 | 0.07 | 88 | 1015.8 |
| 20260903154842 | 85 | 208 | 0.0 | 0.0 | 0.00 | 0.07 | 0.07 | 88 | 1015.9 |
| 20260903154338 | 85 | 226 | 0.0 | 1.0 | 0.00 | 0.07 | 0.07 | 87 | 1015.9 |
| 20260903153833 | 85 | 221 | 0.0 | 0.0 | 0.00 | 0.07 | 0.07 | 87 | 1015.8 |
| 20260903153329 | 86 | 179 | 0.0 | 1.0 | 0.00 | 0.07 | 0.07 | 86 | 1016.1 |
| 20260903152825 | 85 | 190 | 0.0 | 1.0 | 0.00 | 0.07 | 0.07 | 88 | 1015.9 |
| 20260903152321 | 85 | 189 | 0.0 | 1.0 | 0.00 | 0.07 | 0.07 | 89 | 1015.8 |
| 20260903151815 | 85 | 236 | 0.0 | 0.0 | 0.00 | 0.07 | 0.07 | 90 | 1016.1 |
| 20260903151311 | 84 | 200 | 0.0 | 0.0 | 0.00 | 0.07 | 0.07 | 90 | 1016.0 |
| 20260903150812 | 84 | 224 | 0.0 | 0.0 | 0.00 | 0.07 | 0.07 | 91 | 1016.1 |
| 20260903150311 | 84 | 246 | 0.0 | 0.0 | 0.00 | 0.07 | 0.07 | 92 | 1016.1 |
| 20260903145806 | 83 | 236 | 0.0 | 1.0 | 0.00 | 0.07 | 0.07 | 92 | 1016.2 |
| 20260903145305 | 83 | 267 | 0.0 | 1.0 | 0.00 | 0.07 | 0.07 | 92 | 1016.3 |
| 20260903144800 | 83 | 157 | 0.0 | 1.0 | 0.00 | 0.07 | 0.07 | 92 | 1016.3 |
| 20260903144256 | 82 | 273 | 0.0 | 1.0 | 0.00 | 0.07 | 0.07 | 93 | 1016.2 |
| 20260903143752 | 82 | 236 | 0.0 | 0.0 | 0.00 | 0.07 | 0.07 | 93 | 1016.3 |
| 20260903143248 | 82 | 258 | 1.0 | 2.0 | 0.00 | 0.07 | 0.07 | 93 | 1016.3 |
| 20260903142743 | 82 | 244 | 0.0 | 1.0 | 0.00 | 0.07 | 0.07 | 94 | 1016.3 |
| 20260903142239 | 82 | 240 | 0.0 | 1.0 | 0.00 | 0.07 | 0.07 | 94 | 1016.2 |
| 20260903141735 | 82 | 221 | 0.0 | 0.0 | 0.00 | 0.07 | 0.07 | 94 | 1016.2 |
| 20260903141230 | 82 | 221 | 0.0 | 0.0 | 0.00 | 0.07 | 0.07 | 95 | 1016.1 |
| 20260903140725 | 81 | 192 | 0.0 | 0.0 | 0.00 | 0.07 | 0.07 | 95 | 1016.2 |
| 20260903140220 | 81 | 191 | 0.0 | 0.0 | 0.00 | 0.07 | 0.07 | 95 | 1016.0 |
| 20260903135716 | 81 | 208 | 0.0 | 0.0 | 0.00 | 0.07 | 0.07 | 96 | 1015.9 |
| 20260903135212 | 81 | 198 | 0.0 | 0.0 | 0.00 | 0.07 | 0.07 | 96 | 1015.8 |
| 20260903134710 | 80 | 206 | 0.0 | 0.0 | 0.00 | 0.07 | 0.07 | 97 | 1015.9 |
| 20260903134207 | 80 | 200 | 0.0 | 0.0 | 0.00 | 0.07 | 0.07 | 98 | 1015.7 |
| 20260903133704 | 80 | 210 | 0.0 | 0.0 | 0.00 | 0.07 | 0.07 | 98 | 1015.9 |
| 20260903133200 | 80 | 210 | 0.0 | 0.0 | 0.00 | 0.07 | 0.07 | 99 | 1015.8 |
| 20260903132654 | 79 | 210 | 0.0 | 0.0 | 0.00 | 0.07 | 0.07 | 99 | 1015.8 |
| 20260903132155 | 79 | 210 | 0.0 | 0.0 | 0.00 | 0.07 | 0.07 | 99 | 1015.7 |
| 20260903131655 | 79 | 210 | 0.0 | 0.0 | 0.00 | 0.07 | 0.07 | 99 | 1015.7 |
| 20260903131149 | 79 | 210 | 0.0 | 0.0 | 0.00 | 0.07 | 0.07 | 99 | 1015.9 |
| 20260903130644 | 79 | 210 | 0.0 | 0.0 | 0.00 | 0.07 | 0.07 | 99 | 1015.6 |
| 20260903130144 | 78 | 210 | 0.0 | 0.0 | 0.00 | 0.07 | 0.07 | 99 | 1015.6 |
| 20260903125642 | 78 | 210 | 0.0 | 0.0 | 0.00 | 0.07 | 0.07 | 99 | 1015.5 |
| 20260903125137 | 79 | 211 | 0.0 | 0.0 | 0.00 | 0.07 | 0.07 | 99 | 1015.6 |
| 20260903124637 | 78 | 211 | 0.0 | 0.0 | 0.00 | 0.07 | 0.07 | 99 | 1015.4 |
| 20260903124131 | 78 | 211 | 0.0 | 0.0 | 0.00 | 0.07 | 0.07 | 99 | 1015.3 |
| 20260903123631 | 78 | 211 | 0.0 | 0.0 | 0.00 | 0.07 | 0.07 | 99 | 1015.3 |
| 20260903123130 | 78 | 211 | 0.0 | 0.0 | 0.00 | 0.07 | 0.07 | 99 | 1015.2 |
| 20260903122630 | 78 | 211 | 0.0 | 0.0 | 0.00 | 0.07 | 0.07 | 99 | 1015.2 |
| 20260903122124 | 78 | 211 | 0.0 | 0.0 | 0.00 | 0.07 | 0.07 | 99 | 1015.0 |
| 20260903121623 | 78 | 211 | 0.0 | 0.0 | 0.00 | 0.07 | 0.07 | 99 | 1014.8 |
| 20260903121119 | 78 | 211 | 0.0 | 0.0 | 0.00 | 0.07 | 0.07 | 99 | 1015.1 |
| 20260903120618 | 78 | 211 | 0.0 | 0.0 | 0.00 | 0.07 | 0.07 | 99 | 1014.8 |
| 20260903120113 | 78 | 211 | 0.0 | 0.0 | 0.00 | 0.07 | 0.07 | 99 | 1015.0 |
| 20260903115611 | 78 | 211 | 0.0 | 0.0 | 0.00 | 0.07 | 0.07 | 99 | 1014.8 |
| 20260903115106 | 78 | 211 | 0.0 | 0.0 | 0.00 | 0.07 | 0.07 | 99 | 1014.8 |
| 20260903114601 | 78 | 211 | 0.0 | 0.0 | 0.00 | 0.07 | 0.07 | 99 | 1014.8 |
| 20260903114058 | 79 | 211 | 0.0 | 0.0 | 0.00 | 0.07 | 0.07 | 99 | 1014.8 |
| 20260903113553 | 79 | 211 | 0.0 | 0.0 | 0.00 | 0.07 | 0.07 | 99 | 1014.9 |
| 20260903113049 | 78 | 211 | 0.0 | 0.0 | 0.00 | 0.07 | 0.07 | 99 | 1014.8 |
| 20260903112545 | 79 | 211 | 0.0 | 0.0 | 0.00 | 0.07 | 0.07 | 99 | 1014.9 |
| 20260903112044 | 79 | 211 | 0.0 | 0.0 | 0.00 | 0.07 | 0.07 | 99 | 1014.8 |
| 20260903111543 | 79 | 211 | 0.0 | 0.0 | 0.00 | 0.07 | 0.07 | 99 | 1014.8 |
| 20260903111040 | 79 | 210 | 0.0 | 0.0 | 0.00 | 0.07 | 0.07 | 99 | 1014.8 |
| 20260903110536 | 79 | 210 | 0.0 | 0.0 | 0.00 | 0.07 | 0.07 | 99 | 1014.7 |
| 20260903110036 | 79 | 210 | 0.0 | 0.0 | 0.00 | 0.07 | 0.07 | 99 | 1014.8 |
| 20260903105531 | 79 | 210 | 0.0 | 0.0 | 0.00 | 0.07 | 0.07 | 99 | 1014.5 |
| 20260903105026 | 79 | 210 | 0.0 | 0.0 | 0.00 | 0.07 | 0.07 | 99 | 1014.5 |
| 20260903104525 | 79 | 210 | 0.0 | 0.0 | 0.00 | 0.07 | 0.07 | 99 | 1014.6 |
| 20260903104021 | 79 | 210 | 0.0 | 0.0 | 0.00 | 0.07 | 0.07 | 99 | 1014.5 |
| 20260903103517 | 79 | 210 | 0.0 | 0.0 | 0.00 | 0.07 | 0.07 | 99 | 1014.6 |
| 20260903103014 | 79 | 210 | 0.0 | 0.0 | 0.00 | 0.07 | 0.07 | 99 | 1014.6 |
| 20260903102508 | 79 | 210 | 0.0 | 0.0 | 0.00 | 0.07 | 0.07 | 99 | 1014.6 |
| 20260903102007 | 79 | 210 | 0.0 | 0.0 | 0.00 | 0.07 | 0.07 | 99 | 1014.6 |
| 20260903101502 | 79 | 210 | 0.0 | 0.0 | 0.00 | 0.07 | 0.07 | 99 | 1014.3 |
| 20260903100958 | 79 | 210 | 0.0 | 0.0 | 0.00 | 0.07 | 0.07 | 98 | 1014.5 |
| 20260903100452 | 79 | 210 | 0.0 | 0.0 | 0.00 | 0.07 | 0.07 | 99 | 1014.5 |
| 20260903095949 | 79 | 210 | 0.0 | 0.0 | 0.00 | 0.07 | 0.07 | 99 | 1014.3 |
| 20260903095444 | 79 | 210 | 0.0 | 0.0 | 0.00 | 0.07 | 0.07 | 99 | 1014.6 |
| 20260903094939 | 79 | 210 | 0.0 | 0.0 | 0.00 | 0.07 | 0.07 | 99 | 1014.4 |
| 20260903094438 | 79 | 210 | 0.0 | 0.0 | 0.00 | 0.07 | 0.07 | 98 | 1014.4 |
| 20260903093935 | 79 | 210 | 0.0 | 0.0 | 0.00 | 0.07 | 0.07 | 98 | 1014.6 |
| 20260903093430 | 79 | 210 | 0.0 | 0.0 | 0.00 | 0.07 | 0.07 | 98 | 1014.3 |
| 20260903092925 | 79 | 210 | 0.0 | 0.0 | 0.00 | 0.07 | 0.07 | 98 | 1014.5 |
| 20260903092425 | 79 | 210 | 0.0 | 0.0 | 0.00 | 0.07 | 0.07 | 98 | 1014.5 |
| 20260903091924 | 79 | 210 | 0.0 | 0.0 | 0.00 | 0.07 | 0.07 | 98 | 1014.4 |
| 20260903091423 | 79 | 210 | 0.0 | 0.0 | 0.00 | 0.07 | 0.07 | 98 | 1014.4 |
| 20260903090918 | 79 | 210 | 0.0 | 0.0 | 0.00 | 0.07 | 0.07 | 98 | 1014.4 |
| 20260903090414 | 79 | 212 | 0.0 | 0.0 | 0.00 | 0.07 | 0.07 | 98 | 1014.5 |
| 20260903085912 | 79 | 211 | 0.0 | 0.0 | 0.00 | 0.07 | 0.07 | 98 | 1014.4 |
| 20260903085410 | 79 | 219 | 0.0 | 0.0 | 0.00 | 0.07 | 0.07 | 98 | 1014.4 |
| 20260903084910 | 79 | 219 | 0.0 | 0.0 | 0.00 | 0.07 | 0.07 | 98 | 1014.5 |
| 20260903084409 | 79 | 201 | 0.0 | 0.0 | 0.00 | 0.07 | 0.07 | 98 | 1014.3 |
| 20260903083904 | 79 | 212 | 0.0 | 0.0 | 0.00 | 0.07 | 0.07 | 98 | 1014.2 |
| 20260903083400 | 79 | 205 | 0.0 | 0.0 | 0.00 | 0.07 | 0.07 | 99 | 1014.3 |
| 20260903082859 | 79 | 216 | 0.0 | 1.0 | 0.00 | 0.07 | 0.07 | 99 | 1014.4 |
| 20260903082354 | 79 | 219 | 0.0 | 0.0 | 0.00 | 0.07 | 0.07 | 99 | 1014.3 |
| 20260903081849 | 79 | 201 | 0.0 | 0.0 | 0.00 | 0.07 | 0.07 | 99 | 1014.3 |
| 20260903081344 | 79 | 201 | 0.0 | 0.0 | 0.00 | 0.07 | 0.07 | 99 | 1014.2 |
| 20260903080841 | 79 | 200 | 0.0 | 2.0 | 0.00 | 0.07 | 0.07 | 99 | 1014.2 |
| 20260903080338 | 79 | 193 | 0.0 | 1.0 | 0.00 | 0.07 | 0.07 | 99 | 1014.3 |
| 20260903075837 | 79 | 205 | 0.0 | 0.0 | 0.00 | 0.07 | 0.07 | 99 | 1014.2 |
| 20260903075333 | 79 | 206 | 0.0 | 0.0 | 0.00 | 0.07 | 0.07 | 99 | 1014.1 |
| 20260903074832 | 79 | 200 | 1.0 | 1.0 | 0.00 | 0.07 | 0.07 | 99 | 1013.9 |
| 20260903074327 | 79 | 196 | 1.0 | 2.0 | 0.00 | 0.07 | 0.07 | 99 | 1014.0 |
| 20260903073822 | 79 | 210 | 0.0 | 1.0 | 0.00 | 0.07 | 0.07 | 99 | 1014.0 |
| 20260903073318 | 79 | 193 | 1.0 | 1.0 | 0.00 | 0.07 | 0.07 | 99 | 1014.1 |
| 20260903072814 | 79 | 199 | 1.0 | 2.0 | 0.00 | 0.07 | 0.07 | 99 | 1014.2 |
| 20260903072309 | 79 | 219 | 2.0 | 3.0 | 0.00 | 0.07 | 0.07 | 99 | 1014.1 |
| 20260903071806 | 79 | 215 | 0.0 | 2.0 | 0.00 | 0.07 | 0.07 | 99 | 1014.1 |
| 20260903071302 | 79 | 205 | 0.0 | 2.0 | 0.00 | 0.07 | 0.07 | 99 | 1014.1 |
| 20260903070801 | 79 | 199 | 0.0 | 1.0 | 0.00 | 0.07 | 0.07 | 99 | 1014.3 |
| 20260903070257 | 79 | 198 | 0.0 | 1.0 | 0.00 | 0.07 | 0.07 | 99 | 1014.1 |
| 20260903065752 | 79 | 204 | 0.0 | 1.0 | 0.00 | 0.07 | 0.07 | 99 | 1014.4 |
| 20260903065251 | 79 | 200 | 0.0 | 3.0 | 0.00 | 0.07 | 0.07 | 99 | 1014.4 |
| 20260903064750 | 79 | 211 | 1.0 | 1.0 | 0.00 | 0.07 | 0.07 | 99 | 1014.4 |
| 20260903064246 | 79 | 200 | 0.0 | 1.0 | 0.00 | 0.07 | 0.07 | 99 | 1014.6 |
| 20260903063742 | 79 | 214 | 0.0 | 3.0 | 0.00 | 0.07 | 0.07 | 99 | 1014.4 |
| 20260903063237 | 79 | 201 | 1.0 | 2.0 | 0.00 | 0.07 | 0.07 | 99 | 1014.4 |
| 20260903062733 | 79 | 208 | 0.0 | 1.0 | 0.00 | 0.07 | 0.07 | 99 | 1014.4 |
| 20260903062232 | 79 | 203 | 0.0 | 1.0 | 0.00 | 0.07 | 0.07 | 99 | 1014.6 |
| 20260903061729 | 78 | 225 | 1.0 | 2.0 | 0.00 | 0.07 | 0.07 | 99 | 1014.5 |
| 20260903061227 | 78 | 183 | 0.0 | 1.0 | 0.00 | 0.07 | 0.07 | 99 | 1014.6 |
| 20260903060723 | 78 | 212 | 0.0 | 1.0 | 0.00 | 0.07 | 0.07 | 99 | 1014.3 |
| 20260903060223 | 78 | 207 | 0.0 | 0.0 | 0.00 | 0.07 | 0.07 | 99 | 1014.5 |
| 20260903055720 | 78 | 199 | 0.0 | 1.0 | 0.00 | 0.07 | 0.07 | 99 | 1014.6 |
| 20260903055219 | 77 | 155 | 1.0 | 2.0 | 0.00 | 0.07 | 0.07 | 99 | 1014.8 |
| 20260903054714 | 77 | 202 | 0.0 | 1.0 | 0.00 | 0.07 | 0.07 | 99 | 1014.9 |
| 20260903054210 | 77 | 203 | 0.0 | 0.0 | 0.07 | 0.07 | 0.07 | 99 | 1015.0 |
| 20260903053706 | 77 | 195 | 0.0 | 1.0 | 0.07 | 0.07 | 0.07 | 99 | 1015.0 |
| 20260903053201 | 77 | 200 | 2.0 | 2.0 | 0.12 | 0.06 | 0.06 | 99 | 1015.0 |
| 20260903052657 | 77 | 200 | 1.0 | 2.0 | 0.17 | 0.06 | 0.06 | 99 | 1015.0 |
| 20260903052153 | 77 | 245 | 0.0 | 1.0 | 0.17 | 0.04 | 0.04 | 99 | 1015.3 |
| 20260903051653 | 77 | 245 | 0.0 | 0.0 | 0.12 | 0.03 | 0.03 | 99 | 1015.7 |
| 20260903051148 | 77 | 245 | 0.0 | 0.0 | 0.07 | 0.01 | 0.01 | 99 | 1015.7 |
| 20260903050644 | 77 | 246 | 0.0 | 1.0 | 0.07 | 0.01 | 0.01 | 99 | 1015.7 |
| 20260903050137 | 77 | 246 | 0.0 | 0.0 | 0.07 | 0.00 | 0.00 | 99 | 1015.7 |
| 20260903045637 | 77 | 246 | 0.0 | 1.0 | 0.07 | 1.17 | 1.17 | 99 | 1015.6 |
| 20260903045134 | 77 | 246 | 0.0 | 0.0 | 0.00 | 1.16 | 1.16 | 99 | 1015.8 |
| 20260903044629 | 77 | 247 | 0.0 | 0.0 | 0.00 | 1.16 | 1.16 | 99 | 1015.7 |